Surface/Precipitation History
04/19/2018 04:29  to  4/20/2018 04:29
Change End Date:
Date/Time
(MDT)
Sf
Temp Chem Water Layer Surface Precipitation
Sfc Pvt Sub Frz Factor Pct Dpth DpthThk IcePct Cond Salin FI Type Intens Accum Rate
04/20/2018 04:25 Ice Watch 30.6F - 47F - 5 - - - - 3 mhos 363 - None None - -
04/20/2018 04:15 Ice Watch 30.9F - 47F - 5 - - - - 3 mhos 345 - None None - -
04/20/2018 04:10 Ice Watch 30.9F - 47F - 5 - - - - 3 mhos 342 - None None - -
04/20/2018 04:05 Ice Watch 31.1F - 47F - 5 - - - - 3 mhos 337 - None None - -
04/20/2018 03:55 Ice Watch 31.3F - 47F - 5 - - - - 3 mhos 323 - None None - -
04/20/2018 03:55 Ice Watch 31.3F - 47F - 5 - - - - 3 mhos 323 - None None - -
04/20/2018 03:45 Ice Watch 31.3F - 48F - 5 - - - - 3 mhos 318 - None None - -
04/20/2018 03:40 Ice Watch 31.3F - 48F - 5 - - - - 3 mhos 310 - None None - -
04/20/2018 03:35 Ice Watch 31.5F - 48F - 5 - - - - 3 mhos 301 - None None - -
04/20/2018 03:25 Ice Watch 31.6F - 48F - 5 - - - - 3 mhos 293 - None None - -
04/20/2018 03:25 Ice Watch 31.6F - 48F - 5 - - - - 3 mhos 293 - None None - -
04/20/2018 03:15 Trace Moisture 32.2F - 48F - 5 - - - - 3 mhos 279 - None None - -
04/20/2018 03:10 Trace Moisture 32.4F - 48F - 5 - - - - 3 mhos 276 - None None - -
04/20/2018 03:05 Trace Moisture 32.5F - 48F - 5 - - - - 3 mhos 275 - None None - -
04/20/2018 02:55 Trace Moisture 32.9F - 48F - 5 - - - - 3 mhos 272 - None None - -
Date/Time
(MDT)
Sf
Temp Chem Water Layer Surface Precipitation
Sfc Pvt Sub Frz Factor Pct Dpth DpthThk IcePct Cond Salin FI Type Intens Accum Rate
04/20/2018 02:55 Trace Moisture 32.9F - 48F - 5 - - - - 3 mhos 272 - None None - -
04/20/2018 02:45 Trace Moisture 33.1F - 48F - 5 - - - - 3 mhos 270 - None None - -
04/20/2018 02:40 Trace Moisture 33.3F - 48F - 5 - - - - 3 mhos 274 - None None - -
04/20/2018 02:35 Trace Moisture 33.4F - 48F - 5 - - - - 3 mhos 274 - None None - -
04/20/2018 02:25 Trace Moisture 33.6F - 48F - 5 - - - - 3 mhos 274 - None None - -
04/20/2018 02:25 Trace Moisture 33.6F - 48F - 5 - - - - 3 mhos 274 - None None - -
04/20/2018 02:15 Trace Moisture 34.2F - 48F - 10 - - - - 3 mhos 275 - None None - -
04/20/2018 02:10 Trace Moisture 34.2F - 48F - 10 - - - - 3 mhos 277 - None None - -
04/20/2018 02:05 Trace Moisture 34.5F - 48F - 10 - - - - 3 mhos 298 - None None - -
04/20/2018 01:55 Trace Moisture 34.7F - 48F - 10 - - - - 3 mhos 300 - None None - -
04/20/2018 01:55 Trace Moisture 34.7F - 48F - 10 - - - - 3 mhos 300 - None None - -
04/20/2018 01:44 Trace Moisture 34.9F - 48F - 15 - - - - 3 mhos 302 - None None - -
04/20/2018 01:40 Trace Moisture 35.1F - 48F - 15 - - - - 3 mhos 305 - None None - -
04/20/2018 01:34 Trace Moisture 35.1F - 48F - 15 - - - - 3 mhos 306 - None None - -
04/20/2018 01:25 Trace Moisture 35.4F - 48F - 15 - - - - 3 mhos 312 - None None - -
Date/Time
(MDT)
Sf
Temp Chem Water Layer Surface Precipitation
Sfc Pvt Sub Frz Factor Pct Dpth DpthThk IcePct Cond Salin FI Type Intens Accum Rate
04/20/2018 01:24 Trace Moisture 35.4F - 48F - 15 - - - - 3 mhos 312 - None None - -
04/20/2018 01:14 Trace Moisture 35.8F - 48F - 15 - - - - 3 mhos 324 - None None - -
04/20/2018 01:10 Trace Moisture 35.8F - 48F - 15 - - - - 3 mhos 309 - None None - -
04/20/2018 01:04 Trace Moisture 36.0F - 48F - 15 - - - - 3 mhos 317 - None None - -
04/20/2018 00:55 Trace Moisture 36.3F - 48F - 20 - - - - 4 mhos 348 - None None - -
04/20/2018 00:54 Trace Moisture 36.3F - 48F - 20 - - - - 4 mhos 352 - None None - -
04/20/2018 00:44 Trace Moisture 37.0F - 48F - 20 - - - - 4 mhos 369 - None None - -
04/20/2018 00:40 Trace Moisture 37.0F - 48F - 25 - - - - 4 mhos 346 - None None - -
04/20/2018 00:34 Trace Moisture 37.2F - 49F - 20 - - - - 4 mhos 360 - None None - -
04/20/2018 00:25 Trace Moisture 37.4F - 49F - 25 - - - - 5 mhos 423 - None None - -
04/20/2018 00:24 Trace Moisture 37.6F - 49F - 25 - - - - 4 mhos 420 - None None - -
04/20/2018 00:14 Trace Moisture 37.9F - 49F - 25 - - - - 5 mhos 436 - None None - -
04/20/2018 00:10 Trace Moisture 38.1F - 49F - 25 - - - - 5 mhos 440 - None None - -
04/20/2018 00:04 Trace Moisture 38.3F - 49F - 25 - - - - 5 mhos 450 - None None - -
04/19/2018 23:55 Trace Moisture 38.5F - 49F - 25 - - - - 5 mhos 472 - None None - -
Date/Time
(MDT)
Sf
Temp Chem Water Layer Surface Precipitation
Sfc Pvt Sub Frz Factor Pct Dpth DpthThk IcePct Cond Salin FI Type Intens Accum Rate
04/19/2018 23:54 Trace Moisture 38.7F - 49F - 25 - - - - 5 mhos 471 - None None - -
04/19/2018 23:44 Trace Moisture 39.4F - 49F - 25 - - - - 6 mhos 548 - None None - -
04/19/2018 23:40 Trace Moisture 39.7F - 49F - 25 - - - - 6 mhos 585 - None None - -
04/19/2018 23:34 Trace Moisture 39.9F - 49F - 30 - - - - 7 mhos 610 - None None - -
04/19/2018 23:25 Trace Moisture 40.6F - 49F - 30 - - - - 7 mhos 647 - None None - -
04/19/2018 23:24 Trace Moisture 40.6F - 49F - 30 - - - - 7 mhos 641 - None None - -
04/19/2018 23:13 Dry 41.0F - 49F - - - - - - 8 mhos 723 - None None - -
04/19/2018 23:10 Dry 41.0F - 49F - - - - - - 8 mhos 732 - None None - -
04/19/2018 23:03 Dry 41.4F - 49F - - - - - - 8 mhos 761 - None None - -
04/19/2018 22:55 Dry 41.9F - 49F - - - - - - 9 mhos 777 - None None - -
04/19/2018 22:53 Dry 41.9F - 49F - - - - - - 9 mhos 844 - None None - -
04/19/2018 22:43 Dry 42.4F - 48F - - - - - - 10 mhos 878 - None None - -
04/19/2018 22:40 Dry 42.6F - 48F - - - - - - 10 mhos 886 - None None - -
04/19/2018 22:33 Dry 43.0F - 48F - - - - - - 10 mhos 902 - None None - -
04/19/2018 22:25 Dry 43.5F - 48F - - - - - - 10 mhos 922 - None None - -
Date/Time
(MDT)
Sf
Temp Chem Water Layer Surface Precipitation
Sfc Pvt Sub Frz Factor Pct Dpth DpthThk IcePct Cond Salin FI Type Intens Accum Rate
04/19/2018 22:23 Dry 43.5F - 48F - - - - - - 11 mhos 934 - None None - -
04/19/2018 22:13 Dry 43.7F - 48F - - - - - - 10 mhos 877 - None None - -
04/19/2018 22:10 Dry 43.9F - 48F - - - - - - 10 mhos 895 - None None - -
04/19/2018 22:03 Dry 44.1F - 48F - - - - - - 10 mhos 869 - None None - -
04/19/2018 21:55 Dry 44.8F - 48F - - - - - - 11 mhos 929 - None None - -
04/19/2018 21:53 Dry 44.8F - 48F - - - - - - 11 mhos 927 - None None - -
04/19/2018 21:43 Dry 45.7F - 48F - - - - - - 11 mhos 985 - None None - -
04/19/2018 21:40 Dry 45.9F - 48F - - - - - - 12 mhos 1014 - None None - -
04/19/2018 21:33 Dry 46.2F - 48F - - - - - - 14 mhos 1212 - None None - -
04/19/2018 21:25 Dry 46.2F - 48F - - - - - - 13 mhos 1138 - None None - -
04/19/2018 21:23 Dry 46.4F - 48F - - - - - - 14 mhos 1180 - None None - -
04/19/2018 21:13 Dry 46.9F - 48F - - - - - - 16 mhos 1410 - None None - -
04/19/2018 21:10 Dry 47.3F - 48F - - - - - - 17 mhos 1476 - None None - -
04/19/2018 21:03 Dry 47.5F - 48F - - - - - - 17 mhos 1466 - None None - -
04/19/2018 20:55 Dry 48.0F - 48F - - - - - - 17 mhos 1491 - None None - -
Date/Time
(MDT)
Sf
Temp Chem Water Layer Surface Precipitation
Sfc Pvt Sub Frz Factor Pct Dpth DpthThk IcePct Cond Salin FI Type Intens Accum Rate
04/19/2018 20:53 Dry 48.2F - 48F - - - - - - 17 mhos 1488 - None None - -
04/19/2018 20:43 Dry 48.9F - 48F - - - - - - 18 mhos 1514 - None None - -
04/19/2018 20:40 Dry 49.1F - 48F - - - - - - 18 mhos 1558 - None None - -
04/19/2018 20:33 Dry 50.0F - 48F - - - - - - 19 mhos 1618 - None None - -
04/19/2018 20:25 Dry 50.4F - 48F - - - - - - 20 mhos 1689 - None None - -
04/19/2018 20:23 Dry 50.5F - 48F - - - - - - 21 mhos 1726 - None None - -
04/19/2018 20:12 Dry 51.6F - 47F - - - - - - 25 mhos 2089 - None None - -
04/19/2018 20:10 Dry 51.8F - 47F - - - - - - 25 mhos 2106 - None None - -
04/19/2018 20:02 Dry 52.7F - 47F - - - - - - 26 mhos 2146 - None None - -
04/19/2018 19:55 Dry 53.8F - 47F - - - - - - 27 mhos 2222 - None None - -
04/19/2018 19:52 Dry 54.0F - 47F - - - - - - 27 mhos 2217 - None None - -
04/19/2018 19:42 Dry 55.4F - 47F - - - - - - 29 mhos 2341 - None None - -
04/19/2018 19:40 Dry 55.6F - 47F - - - - - - 29 mhos 2338 - None None - -
04/19/2018 19:32 Dry 56.3F - 47F - - - - - - 29 mhos 2344 - None None - -
04/19/2018 19:25 Dry 57.0F - 47F - - - - - - 29 mhos 2342 - None None - -
Date/Time
(MDT)
Sf
Temp Chem Water Layer Surface Precipitation
Sfc Pvt Sub Frz Factor Pct Dpth DpthThk IcePct Cond Salin FI Type Intens Accum Rate
04/19/2018 19:22 Dry 57.4F - 47F - - - - - - 30 mhos 2400 - None None - -
04/19/2018 19:12 Dry 58.6F - 47F - - - - - - 28 mhos 2214 - None None - -
04/19/2018 19:10 Dry 58.6F - 47F - - - - - - 28 mhos 2176 - None None - -
04/19/2018 19:02 Dry 59.9F - 47F - - - - - - 29 mhos 2293 - None None - -
04/19/2018 18:55 Dry 61.7F - 47F - - - - - - 34 mhos 2641 - None None - -
04/19/2018 18:52 Dry 62.1F - 46F - - - - - - 34 mhos 2645 - None None - -
04/19/2018 18:42 Dry 63.3F - 46F - - - - - - 35 mhos 2642 - None None - -
04/19/2018 18:40 Dry 63.9F - 46F - - - - - - 34 mhos 2595 - None None - -
04/19/2018 18:32 Dry 64.8F - 46F - - - - - - 34 mhos 2569 - None None - -
04/19/2018 18:25 Dry 65.7F - 46F - - - - - - 34 mhos 2550 - None None - -
04/19/2018 18:22 Dry 66.2F - 46F - - - - - - 35 mhos 2550 - None None - -
04/19/2018 18:12 Dry 67.8F - 46F - - - - - - 35 mhos 2526 - None None - -
04/19/2018 18:10 Dry 67.8F - 46F - - - - - - 35 mhos 2526 - None None - -
04/19/2018 18:02 Dry 68.4F - 46F - - - - - - 35 mhos 2545 - None None - -
04/19/2018 17:55 Dry 68.2F - 46F - - - - - - 35 mhos 2514 - None None - -
Date/Time
(MDT)
Sf
Temp Chem Water Layer Surface Precipitation
Sfc Pvt Sub Frz Factor Pct Dpth DpthThk IcePct Cond Salin FI Type Intens Accum Rate
04/19/2018 17:52 Dry 68.5F - 46F - - - - - - 34 mhos 2474 - None None - -
04/19/2018 17:42 Dry 70.9F - 46F - - - - - - 35 mhos 2450 - None None - -
04/19/2018 17:40 Dry 71.2F - 45F - - - - - - 35 mhos 2460 - None None - -
04/19/2018 17:32 Dry 71.1F - 45F - - - - - - 35 mhos 2446 - None None - -
04/19/2018 17:25 Dry 72.5F - 45F - - - - - - 35 mhos 2394 - None None - -
04/19/2018 17:21 Dry 73.4F - 45F - - - - - - 35 mhos 2388 - None None - -
04/19/2018 17:11 Dry 75.0F - 45F - - - - - - 35 mhos 2354 - None None - -
04/19/2018 17:10 Dry 74.5F - 45F - - - - - - 35 mhos 2368 - None None - -
04/19/2018 17:01 Dry 74.7F - 45F - - - - - - 35 mhos 2377 - None None - -
04/19/2018 16:55 Dry 75.4F - 45F - - - - - - 35 mhos 2333 - None None - -
04/19/2018 16:51 Dry 74.8F - 45F - - - - - - 35 mhos 2357 - None None - -
04/19/2018 16:41 Dry 76.5F - 44F - - - - - - 35 mhos 2321 - None None - -
04/19/2018 16:40 Dry 75.9F - 44F - - - - - - 35 mhos 2350 - None None - -
04/19/2018 16:31 Dry 76.6F - 44F - - - - - - 35 mhos 2317 - None None - -
04/19/2018 16:25 Dry 77.4F - 44F - - - - - - 35 mhos 2304 - None None - -
Date/Time
(MDT)
Sf
Temp Chem Water Layer Surface Precipitation
Sfc Pvt Sub Frz Factor Pct Dpth DpthThk IcePct Cond Salin FI Type Intens Accum Rate
04/19/2018 16:21 Dry 78.1F - 44F - - - - - - 35 mhos 2275 - None None - -
04/19/2018 16:11 Dry 78.6F - 44F - - - - - - 35 mhos 2261 - None None - -
04/19/2018 16:10 Dry 79.2F - 44F - - - - - - 34 mhos 2236 - None None - -
04/19/2018 16:01 Dry 82.4F - 44F - - - - - - 34 mhos 2159 - None None - -
04/19/2018 15:55 Dry 83.1F - 44F - - - - - - 34 mhos 2144 - None None - -
04/19/2018 15:51 Dry 82.8F - 44F - - - - - - 34 mhos 2153 - None None - -
04/19/2018 15:41 Dry 82.2F - 44F - - - - - - 34 mhos 2160 - None None - -
04/19/2018 15:40 Dry 82.2F - 44F - - - - - - 34 mhos 2160 - None None - -
04/19/2018 15:31 Dry 81.7F - 44F - - - - - - 34 mhos 2169 - None None - -
04/19/2018 15:25 Dry 82.6F - 43F - - - - - - 34 mhos 2140 - None None - -
04/19/2018 15:21 Dry 82.0F - 43F - - - - - - 34 mhos 2163 - None None - -
04/19/2018 15:11 Dry 82.6F - 43F - - - - - - 34 mhos 2139 - None None - -
04/19/2018 15:10 Dry 82.4F - 43F - - - - - - 34 mhos 2142 - None None - -
04/19/2018 15:01 Dry 81.5F - 43F - - - - - - 34 mhos 2159 - None None - -
04/19/2018 14:55 Dry 80.2F - 43F - - - - - - 33 mhos 2128 - None None - -
Date/Time
(MDT)
Sf
Temp Chem Water Layer Surface Precipitation
Sfc Pvt Sub Frz Factor Pct Dpth DpthThk IcePct Cond Salin FI Type Intens Accum Rate
04/19/2018 14:51 Dry 79.3F - 43F - - - - - - 34 mhos 2200 - None None - -
04/19/2018 14:40 Dry 79.5F - 43F - - - - - - 34 mhos 2196 - None None - -
04/19/2018 14:40 Dry 79.2F - 43F - - - - - - 34 mhos 2203 - None None - -
04/19/2018 14:30 Dry 79.2F - 43F - - - - - - 34 mhos 2185 - None None - -
04/19/2018 14:25 Dry 78.8F - 43F - - - - - - 34 mhos 2205 - None None - -
04/19/2018 14:20 Dry 79.5F - 43F - - - - - - 34 mhos 2178 - None None - -
04/19/2018 14:10 Dry 78.6F - 43F - - - - - - 34 mhos 2196 - None None - -
04/19/2018 14:10 Dry 79.2F - 43F - - - - - - 34 mhos 2183 - None None - -
04/19/2018 14:00 Dry 78.1F - 43F - - - - - - 34 mhos 2219 - None None - -
04/19/2018 13:55 Dry 78.6F - 43F - - - - - - 34 mhos 2209 - None None - -
04/19/2018 13:50 Dry 79.3F - 42F - - - - - - 34 mhos 2180 - None None - -
04/19/2018 13:40 Dry 79.2F - 42F - - - - - - 34 mhos 2182 - None None - -
04/19/2018 13:40 Dry 79.2F - 42F - - - - - - 34 mhos 2182 - None None - -
04/19/2018 13:30 Dry 78.8F - 42F - - - - - - 33 mhos 2173 - None None - -
04/19/2018 13:25 Dry 78.6F - 42F - - - - - - 33 mhos 2179 - None None - -
Date/Time
(MDT)
Sf
Temp Chem Water Layer Surface Precipitation
Sfc Pvt Sub Frz Factor Pct Dpth DpthThk IcePct Cond Salin FI Type Intens Accum Rate
04/19/2018 13:20 Dry 78.8F - 42F - - - - - - 33 mhos 2145 - None None - -
04/19/2018 13:10 Dry 77.5F - 42F - - - - - - 33 mhos 2183 - None None - -
04/19/2018 13:10 Dry 77.5F - 42F - - - - - - 33 mhos 2183 - None None - -
04/19/2018 13:00 Dry 76.3F - 42F - - - - - - 32 mhos 2152 - None None - -
04/19/2018 12:55 Dry 74.8F - 42F - - - - - - 32 mhos 2153 - None None - -
04/19/2018 12:50 Dry 74.1F - 42F - - - - - - 32 mhos 2180 - None None - -
04/19/2018 12:40 Dry 72.7F - 42F - - - - - - 31 mhos 2154 - None None - -
04/19/2018 12:40 Dry 72.7F - 42F - - - - - - 31 mhos 2154 - None None - -
04/19/2018 12:30 Dry 71.4F - 42F - - - - - - 31 mhos 2152 - None None - -
04/19/2018 12:25 Dry 69.4F - 42F - - - - - - 31 mhos 2167 - None None - -
04/19/2018 12:20 Dry 70.2F - 42F - - - - - - 31 mhos 2166 - None None - -
04/19/2018 12:10 Dry 68.7F - 42F - - - - - - 30 mhos 2155 - None None - -
04/19/2018 12:10 Dry 68.0F - 42F - - - - - - 30 mhos 2156 - None None - -
04/19/2018 11:59 Dry 66.7F - 42F - - - - - - 29 mhos 2110 - None None - -
04/19/2018 11:55 Dry 65.8F - 42F - - - - - - 29 mhos 2113 - None None - -
Date/Time
(MDT)
Sf
Temp Chem Water Layer Surface Precipitation
Sfc Pvt Sub Frz Factor Pct Dpth DpthThk IcePct Cond Salin FI Type Intens Accum Rate
04/19/2018 11:49 Dry 64.8F - 42F - - - - - - 28 mhos 2089 - None None - -
04/19/2018 11:40 Dry 63.3F - 42F - - - - - - 27 mhos 2039 - None None - -
04/19/2018 11:39 Dry 63.1F - 42F - - - - - - 28 mhos 2067 - None None - -
04/19/2018 11:29 Dry 61.0F - 42F - - - - - - 27 mhos 2080 - None None - -
04/19/2018 11:25 Dry 60.4F - 42F - - - - - - 27 mhos 2036 - None None - -
04/19/2018 11:19 Dry 60.3F - 42F - - - - - - 26 mhos 2029 - None None - -
04/19/2018 11:10 Dry 57.9F - 42F - - - - - - 24 mhos 1879 - None None - -
04/19/2018 11:09 Dry 57.9F - 42F - - - - - - 24 mhos 1905 - None None - -
04/19/2018 10:59 Dry 55.8F - 42F - - - - - - 22 mhos 1743 - None None - -
04/19/2018 10:55 Dry 55.0F - 42F - - - - - - 21 mhos 1703 - None None - -
04/19/2018 10:49 Dry 54.3F - 42F - - - - - - 21 mhos 1708 - None None - -
04/19/2018 10:40 Dry 53.8F - 42F - - - - - - 21 mhos 1714 - None None - -
04/19/2018 10:39 Dry 53.4F - 42F - - - - - - 21 mhos 1705 - None None - -
04/19/2018 10:29 Dry 52.7F - 42F - - - - - - 21 mhos 1746 - None None - -
04/19/2018 10:25 Dry 51.6F - 42F - - - - - - 20 mhos 1701 - None None - -
Date/Time
(MDT)
Sf
Temp Chem Water Layer Surface Precipitation
Sfc Pvt Sub Frz Factor Pct Dpth DpthThk IcePct Cond Salin FI Type Intens Accum Rate
04/19/2018 10:19 Dry 50.7F - 42F - - - - - - 18 mhos 1476 - None None - -
04/19/2018 10:10 Dry 48.6F - 43F - - - - - - 18 mhos 1561 - None None - -
04/19/2018 10:09 Dry 48.4F - 43F - - - - - - 18 mhos 1554 - None None - -
04/19/2018 09:59 Dry 46.2F - 43F - - - - - - 16 mhos 1355 - None None - -
04/19/2018 09:55 Dry 45.3F - 43F - - - - - - 14 mhos 1253 - None None - -
04/19/2018 09:49 Dry 44.2F - 43F - - - - - - 13 mhos 1133 - None None - -
04/19/2018 09:40 Dry 42.1F - 43F - - - - - - 8 mhos 701 - None None - -
04/19/2018 09:39 Dry 41.7F - 43F - - - - - - 7 mhos 647 - None None - -
04/19/2018 09:28 Dry 39.7F - 43F - - - - - - 7 mhos 621 - None None - -
04/19/2018 09:25 Dry 39.2F - 43F - - - - - - 6 mhos 579 - None None - -
04/19/2018 09:18 Dry 38.5F - 43F - - - - - - 5 mhos 450 - None None - -
04/19/2018 09:10 Dry 37.0F - 43F - - - - - - 4 mhos 358 - None None - -
04/19/2018 09:08 Dry 36.9F - 43F - - - - - - 4 mhos 341 - None None - -
04/19/2018 08:58 Dry 35.8F - 43F - - - - - - 3 mhos 334 - None None - -
04/19/2018 08:55 Wet 35.4F - 43F 32F 50 1% 0.00 in - 0% 3 mhos 317 - None None - -
Date/Time
(MDT)
Sf
Temp Chem Water Layer Surface Precipitation
Sfc Pvt Sub Frz Factor Pct Dpth DpthThk IcePct Cond Salin FI Type Intens Accum Rate
04/19/2018 08:48 Wet 35.1F - 43F 32F 50 1% 0.00 in - 0% 3 mhos 301 - None None - -
04/19/2018 08:40 Wet 34.0F - 43F 32F 45 1% 0.00 in - 0% 3 mhos 288 - None None - -
04/19/2018 08:38 Wet 33.8F - 43F 32F 45 1% 0.00 in - 0% 3 mhos 285 - None None - -
04/19/2018 08:28 Wet 32.7F - 43F 32F 40 0% 0.00 in - 0% 1 mhos 58 - None None - -
04/19/2018 08:25 Wet 32.5F - 43F 32F 35 0% 0.00 in - 0% 1 mhos 55 - None None - -
04/19/2018 08:18 Ice Warning 31.8F - 43F 32F 30 0% - - 87% 1 mhos 55 - None None - -
04/19/2018 08:10 Ice Warning 30.7F - 43F 32F 30 0% - - 98% 1 mhos 58 - None None - -
04/19/2018 08:08 Ice Warning 30.9F - 43F 32F 30 0% - - 98% 1 mhos 58 - None None - -
04/19/2018 07:58 Ice Warning 29.5F - 43F 32F 10 0% - - 99% 0 mhos 58 - None None - -
04/19/2018 07:55 Ice Warning 29.1F - 43F 32F 10 0% - - 99% 0 mhos 60 - None None - -
04/19/2018 07:48 Ice Warning 28.4F - 44F 32F 5 1% - - 95% 3 mhos 364 - None None - -
04/19/2018 07:40 Ice Warning 27.5F - 44F 32F 5 1% - - 95% 3 mhos 421 - None None - -
04/19/2018 07:38 Ice Warning 27.3F - 44F 32F 5 1% - - 95% 3 mhos 434 - None None - -
04/19/2018 07:28 Ice Warning 26.8F - 44F 32F 5 2% - - 95% 3 mhos 476 - None None - -
04/19/2018 07:25 Ice Warning 26.6F - 44F 32F 5 2% - - 95% 3 mhos 490 - None None - -
Date/Time
(MDT)
Sf
Temp Chem Water Layer Surface Precipitation
Sfc Pvt Sub Frz Factor Pct Dpth DpthThk IcePct Cond Salin FI Type Intens Accum Rate
04/19/2018 07:18 Ice Warning 26.2F - 44F 32F 5 2% - - 95% 3 mhos 485 - None None - -
04/19/2018 07:10 Ice Warning 25.9F - 44F 32F 5 2% - - 95% 3 mhos 494 - None None - -
04/19/2018 07:08 Ice Warning 25.7F - 44F 32F 5 2% - - 95% 3 mhos 488 - None None - -
04/19/2018 06:58 Ice Warning 25.7F - 44F 32F 5 2% - - 96% 3 mhos 467 - None None - -
04/19/2018 06:55 Ice Warning 25.7F - 44F 32F 5 2% - - 96% 3 mhos 466 - None None - -
04/19/2018 06:47 Ice Warning 25.7F - 44F 32F 5 2% - - 96% 3 mhos 456 - None None - -
04/19/2018 06:40 Ice Warning 25.9F - 44F 32F 5 1% - - 96% 3 mhos 444 - None None - -
04/19/2018 06:37 Ice Warning 25.9F - 44F 32F 5 1% - - 96% 3 mhos 443 - None None - -
04/19/2018 06:27 Ice Warning 26.2F - 44F 32F 5 1% - - 96% 3 mhos 432 - None None - -
04/19/2018 06:25 Ice Warning 26.2F - 44F 32F 5 1% - - 96% 3 mhos 431 - None None - -
04/19/2018 06:17 Ice Warning 26.4F - 44F 32F 5 0% - - 99% 0 mhos 72 - None None - -
04/19/2018 06:10 Ice Warning 26.6F - 44F 32F 5 0% - - 99% 0 mhos 71 - None None - -
04/19/2018 06:07 Ice Warning 26.4F - 44F 32F 5 1% - - 96% 3 mhos 425 - None None - -
04/19/2018 05:57 Ice Warning 26.6F - 44F 32F 5 0% - - 99% 0 mhos 72 - None None - -
04/19/2018 05:55 Ice Warning 26.6F - 44F 32F 5 0% - - 99% 0 mhos 71 - None None - -
Date/Time
(MDT)
Sf
Temp Chem Water Layer Surface Precipitation
Sfc Pvt Sub Frz Factor Pct Dpth DpthThk IcePct Cond Salin FI Type Intens Accum Rate
04/19/2018 05:47 Ice Warning 26.8F - 44F 32F 5 0% - - 99% 0 mhos 71 - None None - -
04/19/2018 05:40 Ice Warning 27.0F - 44F 32F 5 0% - - 99% 0 mhos 67 - None None - -
04/19/2018 05:37 Ice Warning 27.1F - 44F 32F 5 0% - - 99% 0 mhos 67 - None None - -
04/19/2018 05:27 Ice Warning 27.5F - 44F 32F 5 0% - - 99% 0 mhos 65 - None None - -
04/19/2018 05:25 Ice Warning 27.5F - 44F 32F 5 0% - - 99% 0 mhos 65 - None None - -
04/19/2018 05:17 Ice Warning 27.3F - 45F 32F 10 1% - - 95% 3 mhos 425 - None None - -
04/19/2018 05:10 Ice Warning 27.9F - 45F 32F 10 1% - - 95% 3 mhos 413 - None None - -
04/19/2018 05:07 Ice Warning 27.9F - 45F 32F 15 1% - - 95% 3 mhos 415 - None None - -
04/19/2018 04:57 Error 28.0F - 45F - - - - - - 3 mhos 402 - None None - -
04/19/2018 04:55 Ice Warning 28.0F - 45F 32F 10 1% - - 95% 3 mhos 406 - None None - -
04/19/2018 04:47 Ice Warning 28.0F - 45F 32F 10 1% - - 95% 3 mhos 402 - None None - -
04/19/2018 04:40 Error 28.2F - 45F - - - - - - 3 mhos 405 - None None - -
04/19/2018 04:37 Ice Warning 28.4F - 45F 32F 15 1% - - 94% 3 mhos 400 - None None - -
Change End Date:

Copyright © 1998-2015 Vaisala, Inc.
All Rights Reserved
Send comments about the data to:
SCAN Web ® is a registered trademark of Vaisala, Inc.
SCAN Web Version 6.0